Frankfort, MI

7:57 AM EDT on March 26, 2017 (GMT -0400)
Frankfort

Weather History for KFKS - October, 2011

Change the Weather History Date:

Sunday, October 2, 2011

  Actual Average (KMBL) Record (KMBL)
Temperature  
Mean Temperature 44 °F -  
Max Temperature 59 °F 66 °F 85 °F (1971)
Min Temperature 30 °F 47 °F 26 °F (2011)
Degree Days  
Heating Degree Days 20    
Moisture  
Dew Point 35 °F    
Average Humidity 78    
Maximum Humidity 100    
Minimum Humidity 45    
Precipitation  
Precipitation 0.00 in - - ()
Sea Level Pressure  
Sea Level Pressure 30.23 in    
Wind  
Wind Speed 1 mph (West)    
Max Wind Speed 9 mph    
Max Gust Speed -    
Visibility 10 miles    
Events      
Averages and records for this station are not official NWS values.
T = Trace of Precipitation, MM = Missing Value Source: NWS Daily Summary

Daily Weather History Graph

Daily Weather History Graph

Search for Another Location

Airport or City:

Trip Planner

Search our weather history database for the weather conditions in past years. The results will help you decide how hot, cold, wet, or windy it might be!

Date:

Astronomy

Oct. 02, 2011 Rise Set
Actual Time 7:43 AM EDT 7:24 PM EDT
Civil Twilight 7:14 AM EDT 7:53 PM EDT
Nautical Twilight 6:40 AM EDT 8:26 PM EDT
Astronomical Twilight 6:06 AM EDT 9:01 PM EDT
Moon 2:03 PM EDT (10/2) 11:07 PM EDT (10/2)
Length of Visible Light 12h 38m
Length of Day
11h 40m
Waxing Crescent, 34% of the Moon is Illuminated
Oct 2
Waxing Crescent
Oct 3
First Quarter
Oct 11
Full
Oct 19
Last Quarter
Oct 26
New

Hourly Weather History & Observations

Time (EDT) Temp. Dew Point Humidity Pressure Visibility Wind Dir Wind Speed Gust Speed Precip Events Conditions
12:15 AM 32.0 °F 32.0 °F 100% 30.26 in 10.0 mi Calm Calm - N/A   Clear
12:35 AM 32.0 °F 30.2 °F 93% 30.26 in 10.0 mi Calm Calm - N/A   Clear
12:55 AM 32.0 °F 30.2 °F 93% 30.26 in 10.0 mi Calm Calm - N/A   Clear
1:15 AM 32.0 °F 30.2 °F 93% 30.26 in 10.0 mi Calm Calm - N/A   Clear
1:35 AM 32.0 °F 30.2 °F 93% 30.26 in 10.0 mi Calm Calm - N/A   Clear
1:55 AM 32.0 °F 30.2 °F 93% 30.26 in 10.0 mi Calm Calm - N/A   Clear
2:15 AM 32.0 °F 32.0 °F 100% 30.26 in 10.0 mi Calm Calm - N/A   Clear
2:36 AM 32.0 °F 30.2 °F 93% 30.27 in 10.0 mi Calm Calm - N/A   Clear
2:53 AM 32.0 °F 30.2 °F 93% 30.26 in 10.0 mi Calm Calm - N/A   Clear
3:13 AM 32.0 °F 30.2 °F 93% 30.26 in 10.0 mi Calm Calm - N/A   Clear
3:33 AM 32.0 °F 30.2 °F 93% 30.26 in 10.0 mi Calm Calm - N/A   Clear
3:53 AM 32.0 °F 30.2 °F 93% 30.26 in 10.0 mi Calm Calm - N/A   Clear
4:13 AM 32.0 °F 30.2 °F 93% 30.26 in 10.0 mi Calm Calm - N/A   Scattered Clouds
4:33 AM 32.0 °F 28.4 °F 87% 30.26 in 10.0 mi Calm Calm - N/A   Overcast
4:53 AM 32.0 °F 30.2 °F 93% 30.26 in 2.0 mi Calm Calm - N/A   Mostly Cloudy
5:14 AM 32.0 °F 30.2 °F 93% 30.26 in 10.0 mi Calm Calm - N/A   Clear
5:34 AM 32.0 °F 28.4 °F 87% 30.26 in 10.0 mi Calm Calm - N/A   Clear
5:54 AM 32.0 °F 30.2 °F 93% 30.26 in 10.0 mi Calm Calm - N/A   Clear
6:14 AM 32.0 °F 28.4 °F 87% 30.26 in 10.0 mi Calm Calm - N/A   Clear
6:33 AM 30.2 °F 28.4 °F 93% 30.26 in 10.0 mi Calm Calm - N/A   Clear
6:54 AM 30.2 °F 28.4 °F 93% 30.26 in 7.0 mi Calm Calm - N/A   Scattered Clouds
7:14 AM 30.2 °F 28.4 °F 93% 30.26 in 10.0 mi Calm Calm - N/A   Scattered Clouds
7:34 AM 30.2 °F 28.4 °F 93% 30.26 in 10.0 mi Calm Calm - N/A   Clear
7:55 AM 30.2 °F 28.4 °F 93% 30.26 in 10.0 mi Calm Calm - N/A   Clear
8:15 AM 30.2 °F 28.4 °F 93% 30.26 in 10.0 mi Calm Calm - N/A   Scattered Clouds
8:35 AM 32.0 °F 30.2 °F 93% 30.27 in 4.0 mi Calm Calm - N/A   Scattered Clouds
8:55 AM 32.0 °F 32.0 °F 100% 30.26 in 10.0 mi Calm Calm - N/A   Scattered Clouds
9:15 AM 35.6 °F 32.0 °F 87% 30.26 in 10.0 mi Calm Calm - N/A   Scattered Clouds
9:35 AM 39.2 °F 35.6 °F 87% 30.25 in 10.0 mi Calm Calm - N/A   Clear
9:55 AM 42.8 °F 39.2 °F 87% 30.25 in 10.0 mi Calm Calm - N/A   Clear
10:15 AM 46.4 °F 41.0 °F 81% 30.25 in 10.0 mi Calm Calm - N/A   Clear
10:35 AM 50.0 °F 42.8 °F 76% 30.25 in 10.0 mi Calm Calm - N/A   Clear
10:56 AM 53.6 °F 41.0 °F 62% 30.25 in 10.0 mi West 6.9 mph - N/A   Clear
11:16 AM 53.6 °F 37.4 °F 54% 30.24 in 10.0 mi West 6.9 mph - N/A   Clear
11:36 AM 53.6 °F 39.2 °F 58% 30.24 in 10.0 mi West 8.1 mph - N/A   Clear
12:11 PM 53.6 °F 41.0 °F 62% 30.23 in 10.0 mi West 6.9 mph - N/A   Clear
12:31 PM 53.6 °F 41.0 °F 62% 30.23 in 10.0 mi WNW 9.2 mph - N/A   Clear
12:51 PM 53.6 °F 41.0 °F 62% 30.22 in 10.0 mi WNW 4.6 mph - N/A   Clear
1:12 PM 55.4 °F 41.0 °F 58% 30.21 in 10.0 mi WNW 5.8 mph - N/A   Clear
1:32 PM 53.6 °F 41.0 °F 62% 30.20 in 10.0 mi West 5.8 mph - N/A   Clear
1:52 PM 55.4 °F 41.0 °F 58% 30.20 in 10.0 mi West 5.8 mph - N/A   Clear
2:53 PM 55.4 °F 37.4 °F 51% 30.17 in 10.0 mi West 6.9 mph - N/A   Clear
3:13 PM 57.2 °F 41.0 °F 55% 30.17 in 10.0 mi WNW 6.9 mph - N/A   Clear
3:33 PM 55.4 °F 37.4 °F 51% 30.17 in 10.0 mi WNW 4.6 mph - N/A   Clear
3:53 PM 57.2 °F 37.4 °F 48% 30.16 in 10.0 mi West 3.5 mph - N/A   Clear
4:13 PM 57.2 °F 37.4 °F 48% 30.16 in 10.0 mi West 3.5 mph - N/A   Clear
4:33 PM 59.0 °F 37.4 °F 45% 30.15 in 10.0 mi WNW 4.6 mph - N/A   Clear
4:54 PM 57.2 °F 37.4 °F 48% 30.15 in 10.0 mi West 4.6 mph - N/A   Clear
5:34 PM 55.4 °F 37.4 °F 51% 30.16 in 10.0 mi Calm Calm - N/A   Clear
6:14 PM 55.4 °F 39.2 °F 54% 30.16 in 10.0 mi West 4.6 mph - N/A   Clear
6:34 PM 53.6 °F 41.0 °F 62% 30.16 in 10.0 mi Calm Calm - N/A   Clear
6:55 PM 51.8 °F 41.0 °F 67% 30.15 in 10.0 mi WNW 3.5 mph - N/A   Clear
7:15 PM 50.0 °F 42.8 °F 76% 30.15 in 10.0 mi Calm Calm - N/A   Clear
7:35 PM 46.4 °F 41.0 °F 81% 30.14 in 10.0 mi Calm Calm - N/A   Clear
7:55 PM 44.6 °F 41.0 °F 87% 30.14 in 10.0 mi Calm Calm - N/A   Clear
8:15 PM 44.6 °F 41.0 °F 87% 30.14 in 10.0 mi Calm Calm - N/A   Clear
8:35 PM 44.6 °F 41.0 °F 87% 30.15 in 10.0 mi Calm Calm - N/A   Clear
8:55 PM 42.8 °F 41.0 °F 93% 30.15 in 10.0 mi Calm Calm - N/A   Clear
9:15 PM 42.8 °F 39.2 °F 87% 30.15 in 10.0 mi Calm Calm - N/A   Clear
9:35 PM 41.0 °F 37.4 °F 87% 30.15 in 10.0 mi Calm Calm - N/A   Clear
9:55 PM 41.0 °F 37.4 °F 87% 30.16 in 10.0 mi Calm Calm - N/A   Clear
10:16 PM 41.0 °F 37.4 °F 87% 30.15 in 10.0 mi Calm Calm - N/A   Clear
10:31 PM 41.0 °F 37.4 °F 87% 30.15 in 10.0 mi Calm Calm - N/A   Clear
10:51 PM 41.0 °F 37.4 °F 87% 30.16 in 10.0 mi Calm Calm - N/A   Clear
11:11 PM 39.2 °F 35.6 °F 87% 30.16 in 10.0 mi Calm Calm - N/A   Clear
11:51 PM 37.4 °F 35.6 °F 93% 30.16 in 10.0 mi Calm Calm - N/A   Clear